SRQ6040 RPVV-RPLC

Flight info

Callsign SRQ6040
Flight time N/A
Altitude 12000
Route TELEN W3 LUBAN/N0282F130 B591 SBA DCT KIBOK TR24 CIA/N0280F140 TR24 KIBOK/N0282F130 KIBOK3N
Aircraft AT76/M-SDFGIRY/S

Departure

Time 2026-05-04 08:54
Airport Francisco B. Reyes (Busuanga) Airport (RPVV)

Arrival

Time N/A
Airport Clark International Airport / Clark Air Base (RPLC)
Time Latitude Longitude Altitude Speed Heading
2026-05-04 08:46 12.12041 120.09915 182 ft 0 kts 174°
2026-05-04 08:50 12.12036 120.09907 182 ft 2 kts 265°
2026-05-04 08:50 12.12063 120.09909 182 ft 8 kts
2026-05-04 08:51 12.12097 120.09924 181 ft 3 kts 76°
2026-05-04 08:51 12.12112 120.09969 181 ft 12 kts 51°
2026-05-04 08:51 12.12189 120.10056 181 ft 20 kts 77°
2026-05-04 08:51 12.12202 120.10193 179 ft 21 kts 84°
2026-05-04 08:52 12.12213 120.10321 179 ft 17 kts 84°
2026-05-04 08:52 12.12228 120.10467 182 ft 21 kts 82°
2026-05-04 08:52 12.12233 120.10590 182 ft 10 kts 99°
2026-05-04 08:52 12.12240 120.10617 182 ft 1 kts 354°
2026-05-04 08:53 12.12239 120.10599 182 ft 5 kts 264°
2026-05-04 08:54 12.12291 120.04894 2679 ft 159 kts 272°
2026-05-04 08:55 12.12678 120.03831 3090 ft 170 kts 316°
2026-05-04 08:55 12.13789 120.03335 3171 ft 184 kts
2026-05-04 08:55 12.15012 120.03652 3478 ft 181 kts 26°
2026-05-04 08:55 12.16046 120.04383 3786 ft 183 kts 43°
2026-05-04 08:57 12.22676 120.10406 6261 ft 185 kts 43°
2026-05-04 09:01 12.36396 120.23005 10165 ft 195 kts 42°
2026-05-04 09:01 12.37406 120.23934 10404 ft 196 kts 42°
2026-05-04 09:01 12.38421 120.24868 10648 ft 196 kts 42°
2026-05-04 09:01 12.39438 120.25801 10862 ft 197 kts 43°
2026-05-04 09:02 12.40461 120.26742 11082 ft 198 kts 43°
2026-05-04 09:02 12.41490 120.27687 11305 ft 199 kts 43°
2026-05-04 09:02 12.42522 120.28638 11521 ft 200 kts 43°
2026-05-04 09:02 12.43559 120.29591 11741 ft 201 kts 43°
2026-05-04 09:03 12.44599 120.30548 11948 ft 202 kts 43°
2026-05-04 09:03 12.45643 120.31508 12176 ft 202 kts 43°
2026-05-04 09:03 12.46693 120.32473 12384 ft 204 kts 44°
2026-05-04 09:03 12.47817 120.33415 12376 ft 215 kts 29°
2026-05-04 09:04 12.49312 120.33654 12410 ft 225 kts 357°
2026-05-04 09:04 12.50888 120.33432 12417 ft 232 kts 353°
2026-05-04 09:04 12.52494 120.33127 12448 ft 236 kts 351°
2026-05-04 09:04 12.54085 120.32814 12524 ft 236 kts 352°
2026-05-04 09:05 12.55702 120.32501 12601 ft 236 kts 352°
2026-05-04 09:05 12.57322 120.32215 12676 ft 237 kts 353°
2026-05-04 09:05 12.58948 120.31938 12751 ft 237 kts 353°
2026-05-04 09:05 12.60578 120.31663 12815 ft 237 kts 353°
2026-05-04 09:06 12.62206 120.31391 12879 ft 237 kts 353°
2026-05-04 09:07 12.73663 120.29473 13320 ft 239 kts 353°
2026-05-04 09:08 12.75308 120.29199 13368 ft 240 kts 353°
2026-05-04 09:08 12.76953 120.28924 13431 ft 240 kts 353°
2026-05-04 09:08 12.78579 120.28651 13471 ft 240 kts 353°
2026-05-04 09:08 12.80229 120.28374 13515 ft 240 kts 353°
2026-05-04 09:09 12.81876 120.28099 13557 ft 240 kts 353°
2026-05-04 09:09 12.83529 120.27821 13610 ft 241 kts 353°
2026-05-04 09:09 12.85181 120.27544 13658 ft 241 kts 353°
2026-05-04 09:09 12.86837 120.27269 13707 ft 241 kts 353°
2026-05-04 09:10 12.88491 120.26991 13741 ft 241 kts 353°
2026-05-04 09:10 12.90150 120.26713 13774 ft 241 kts 353°
2026-05-04 09:10 12.91807 120.26434 13838 ft 241 kts 353°
2026-05-04 09:10 12.93464 120.26157 13916 ft 242 kts 353°
2026-05-04 09:11 12.95128 120.25878 13997 ft 242 kts 353°
2026-05-04 09:11 12.96791 120.25599 14069 ft 242 kts 353°
2026-05-04 09:11 12.98458 120.25319 14139 ft 243 kts 353°
2026-05-04 09:11 13.00127 120.25041 14211 ft 243 kts 353°
2026-05-04 09:12 13.01797 120.24760 14284 ft 243 kts 353°
2026-05-04 09:12 13.03468 120.24478 14349 ft 243 kts 353°
2026-05-04 09:14 13.15203 120.22508 14785 ft 245 kts 353°
2026-05-04 09:14 13.16888 120.22225 14839 ft 246 kts 353°
2026-05-04 09:14 13.18580 120.21941 14895 ft 246 kts 353°
2026-05-04 09:14 13.20268 120.21657 14948 ft 246 kts 353°
2026-05-04 09:15 13.21958 120.21373 14994 ft 246 kts 353°
2026-05-04 09:15 13.23647 120.21091 15046 ft 246 kts 353°
2026-05-04 09:15 13.25342 120.20806 15091 ft 247 kts 353°
2026-05-04 09:15 13.27016 120.20523 15137 ft 247 kts 353°
2026-05-04 09:17 13.40612 120.18235 15456 ft 248 kts 353°
2026-05-04 09:18 13.42315 120.17948 15487 ft 248 kts 353°
2026-05-04 09:18 13.44024 120.17660 15522 ft 249 kts 353°
2026-05-04 09:18 13.45731 120.17373 15554 ft 249 kts 353°
2026-05-04 09:18 13.47440 120.17084 15581 ft 249 kts 353°
2026-05-04 09:19 13.49153 120.16797 15608 ft 249 kts 353°
2026-05-04 09:19 13.50856 120.16509 15690 ft 246 kts 353°
2026-05-04 09:19 13.52540 120.16226 15782 ft 244 kts 353°
2026-05-04 09:19 13.54220 120.15943 15822 ft 245 kts 353°
2026-05-04 09:20 13.55879 120.15664 15839 ft 246 kts 353°
2026-05-04 09:20 13.57593 120.15375 15857 ft 247 kts 353°
2026-05-04 09:20 13.59274 120.15091 15861 ft 249 kts 353°
2026-05-04 09:20 13.60986 120.14802 15866 ft 250 kts 353°
2026-05-04 09:21 13.62704 120.14512 15865 ft 251 kts 353°
2026-05-04 09:21 13.64430 120.14221 15867 ft 252 kts 353°
2026-05-04 09:21 13.66163 120.13929 15865 ft 252 kts 353°
2026-05-04 09:21 13.67895 120.13637 15863 ft 253 kts 353°
2026-05-04 09:22 13.69634 120.13345 15866 ft 253 kts 353°
2026-05-04 09:22 13.71375 120.13051 15865 ft 254 kts 353°
2026-05-04 09:22 13.73119 120.12756 15865 ft 254 kts 353°
2026-05-04 09:22 13.74863 120.12461 15867 ft 254 kts 353°
2026-05-04 09:23 13.76609 120.12167 15867 ft 255 kts 353°
2026-05-04 09:23 13.78356 120.11871 15871 ft 255 kts 353°
2026-05-04 09:23 13.80108 120.11575 15869 ft 255 kts 353°
2026-05-04 09:23 13.81862 120.11279 15867 ft 255 kts 353°
2026-05-04 09:25 13.94012 120.11854 15869 ft 252 kts
2026-05-04 09:25 13.95755 120.12070 15871 ft 252 kts
2026-05-04 09:26 13.97499 120.12293 15871 ft 252 kts
2026-05-04 09:26 13.99244 120.12516 15872 ft 252 kts
2026-05-04 09:26 14.00985 120.12738 15870 ft 252 kts
2026-05-04 09:26 14.02728 120.12962 15871 ft 252 kts
2026-05-04 09:27 14.04473 120.13187 15874 ft 253 kts
2026-05-04 09:27 14.06212 120.13411 15873 ft 253 kts
2026-05-04 09:27 14.07963 120.13636 15873 ft 253 kts
2026-05-04 09:27 14.09704 120.13864 15872 ft 253 kts
2026-05-04 09:28 14.11451 120.14094 15872 ft 253 kts
2026-05-04 09:28 14.13197 120.14310 15872 ft 253 kts
2026-05-04 09:28 14.14942 120.14534 15872 ft 253 kts
2026-05-04 09:28 14.16667 120.14755 15873 ft 253 kts